Wrangell, AK

4:19 PM AKDT on April 23, 2018 (GMT -0800)
Wrangell

Weather History for PAWG - August, 2013

Change the Weather History Date:

Thursday, August 29, 2013

  Actual Average Record
Temperature  
Mean Temperature 58 °F -  
Max Temperature 69 °F 62 °F 74 °F (1951)
Min Temperature 48 °F 47 °F 39 °F (1960)
Degree Days  
Heating Degree Days 6    
Growing Degree Days 8 (Base 50)    
Moisture  
Dew Point 49 °F    
Average Humidity 75    
Maximum Humidity 93    
Minimum Humidity 52    
Precipitation  
Precipitation 0.00 in - - ()
Sea Level Pressure  
Sea Level Pressure 29.79 in    
Wind  
Wind Speed 3 mph (ENE)    
Max Wind Speed 7 mph    
Max Gust Speed -    
Visibility 10 miles    
Events      
Averages and records for this station are not official NWS values.
T = Trace of Precipitation, MM = Missing Value Source: NWS Daily Summary

Daily Weather History Graph

Daily Weather History Graph

Search for Another Location

Airport or City:

Astronomy

Aug. 29, 2013 Rise Set
Actual Time 5:47 AM AKDT 7:51 PM AKDT
Civil Twilight 5:07 AM AKDT 8:31 PM AKDT
Nautical Twilight 4:15 AM AKDT 9:22 PM AKDT
Astronomical Twilight 3:13 AM AKDT 10:23 PM AKDT
Moon 11:57 PM AKDT (8/29) 4:02 PM AKDT (8/29)
Length of Visible Light 15h 24m
Length of Day
14h 03m
Last Quarter, 36% of the Moon is Illuminated
Aug 29
Last Quarter
Sep 5
New
Sep 12
First Quarter
Sep 19
Full
Sep 26
Last Quarter

Hourly Weather History & Observations

Time (AKDT) Temp. Dew Point Humidity Pressure Visibility Wind Dir Wind Speed Gust Speed Precip Events Conditions
12:16 AM 51.8 °F 48.2 °F 88% 29.87 in 10.0 mi ESE 3.5 mph - N/A   Clear
12:36 AM 51.8 °F 48.2 °F 88% 29.87 in 10.0 mi SE 4.6 mph - N/A   Clear
12:56 AM 51.8 °F 48.2 °F 88% 29.87 in 10.0 mi SE 4.6 mph - N/A   Clear
1:16 AM 51.8 °F 46.4 °F 82% 29.87 in 10.0 mi SE 5.8 mph - N/A   Clear
1:36 AM 51.8 °F 46.4 °F 82% 29.87 in 10.0 mi SE 5.8 mph - N/A   Clear
1:56 AM 51.8 °F 46.4 °F 82% 29.87 in 10.0 mi Calm Calm - N/A   Clear
2:16 AM 51.8 °F 46.4 °F 82% 29.86 in 10.0 mi Calm Calm - N/A   Clear
2:36 AM 51.8 °F 46.4 °F 82% 29.86 in 10.0 mi ESE 5.8 mph - N/A   Clear
2:56 AM 51.8 °F 46.4 °F 82% 29.85 in 10.0 mi SE 5.8 mph - N/A   Clear
3:16 AM 51.8 °F 46.4 °F 82% 29.85 in 10.0 mi ESE 3.5 mph - N/A   Clear
3:36 AM 51.8 °F 46.4 °F 82% 29.85 in 10.0 mi East 3.5 mph - N/A   Scattered Clouds
3:56 AM 51.8 °F 46.4 °F 82% 29.85 in 10.0 mi Calm Calm - N/A   Partly Cloudy
4:16 AM 51.8 °F 46.4 °F 82% 29.84 in 10.0 mi SSE 3.5 mph - N/A   Clear
4:36 AM 51.8 °F 46.4 °F 82% 29.84 in 10.0 mi ESE 3.5 mph - N/A   Clear
4:56 AM 51.8 °F 46.4 °F 82% 29.83 in 10.0 mi ESE 5.8 mph - N/A   Clear
5:16 AM 50.0 °F 46.4 °F 87% 29.83 in 10.0 mi SSE 4.6 mph - N/A   Partly Cloudy
5:36 AM 50.0 °F 46.4 °F 87% 29.83 in 10.0 mi Calm Calm - N/A   Mostly Cloudy
5:56 AM 50.0 °F 46.4 °F 87% 29.83 in 10.0 mi Calm Calm - N/A   Partly Cloudy
6:16 AM 50.0 °F 46.4 °F 87% 29.83 in 10.0 mi SE 4.6 mph - N/A   Clear
6:36 AM 48.2 °F 46.4 °F 93% 29.83 in 10.0 mi SE 3.5 mph - N/A   Partly Cloudy
6:56 AM 50.0 °F 46.4 °F 87% 29.83 in 10.0 mi East 3.5 mph - N/A   Partly Cloudy
7:16 AM 51.8 °F 46.4 °F 82% 29.83 in 10.0 mi SE 4.6 mph - N/A   Scattered Clouds
7:36 AM 51.8 °F 46.4 °F 82% 29.82 in 10.0 mi SE 4.6 mph - N/A   Scattered Clouds
7:56 AM 51.8 °F 48.2 °F 88% 29.82 in 10.0 mi SE 3.5 mph - N/A   Scattered Clouds
8:16 AM 53.6 °F 48.2 °F 82% 29.82 in 10.0 mi ESE 3.5 mph - N/A   Scattered Clouds
8:36 AM 53.6 °F 48.2 °F 82% 29.82 in 10.0 mi SE 4.6 mph - N/A   Scattered Clouds
8:56 AM 53.6 °F 48.2 °F 82% 29.82 in 10.0 mi Calm Calm - N/A   Scattered Clouds
9:16 AM 53.6 °F 48.2 °F 82% 29.82 in 10.0 mi Calm Calm - N/A   Scattered Clouds
9:36 AM 53.6 °F 48.2 °F 82% 29.81 in 10.0 mi NNW 4.6 mph - N/A   Scattered Clouds
9:56 AM 55.4 °F 48.2 °F 77% 29.81 in 10.0 mi NNW 3.5 mph - N/A   Scattered Clouds
10:16 AM 57.2 °F 50.0 °F 77% 29.80 in 10.0 mi NNW 4.6 mph - N/A   Scattered Clouds
10:36 AM 57.2 °F 48.2 °F 72% 29.79 in 10.0 mi NNW 5.8 mph - N/A   Scattered Clouds
10:56 AM 59.0 °F 48.2 °F 67% 29.79 in 10.0 mi Calm Calm - N/A   Scattered Clouds
11:16 AM 59.0 °F 48.2 °F 67% 29.79 in 10.0 mi NNW 3.5 mph - N/A   Scattered Clouds
11:36 AM 60.8 °F 48.2 °F 63% 29.78 in 10.0 mi NW 6.9 mph - N/A   Scattered Clouds
11:56 AM 62.6 °F 50.0 °F 63% 29.78 in 10.0 mi NW 5.8 mph - N/A   Scattered Clouds
12:16 PM 59.0 °F 50.0 °F 72% 29.78 in 10.0 mi NNW 5.8 mph - N/A   Scattered Clouds
12:36 PM 59.0 °F 51.8 °F 77% 29.77 in 10.0 mi NNE 3.5 mph - N/A   Scattered Clouds
12:56 PM 60.8 °F 51.8 °F 72% 29.77 in 10.0 mi NNE 3.5 mph - N/A   Scattered Clouds
1:16 PM 64.4 °F 51.8 °F 64% 29.77 in 10.0 mi NNW 3.5 mph - N/A   Scattered Clouds
1:36 PM 64.4 °F 51.8 °F 64% 29.76 in 10.0 mi WNW 4.6 mph - N/A   Scattered Clouds
1:56 PM 66.2 °F 51.8 °F 60% 29.76 in 10.0 mi NW 5.8 mph - N/A   Partly Cloudy
2:16 PM 66.2 °F 53.6 °F 64% 29.75 in 10.0 mi NW 5.8 mph - N/A   Partly Cloudy
2:36 PM 66.2 °F 51.8 °F 60% 29.75 in 10.0 mi NW 4.6 mph - N/A   Partly Cloudy
2:56 PM 69.8 °F 51.8 °F 53% 29.75 in 10.0 mi NW 5.8 mph - N/A   Clear
3:16 PM 69.8 °F 51.8 °F 53% 29.74 in 10.0 mi NW 4.6 mph - N/A   Partly Cloudy
3:36 PM 69.8 °F 51.8 °F 53% 29.74 in 10.0 mi NW 4.6 mph - N/A   Partly Cloudy
3:56 PM 68.0 °F 50.0 °F 52% 29.74 in 10.0 mi WNW 3.5 mph - N/A   Partly Cloudy
4:16 PM 68.0 °F 51.8 °F 56% 29.74 in 10.0 mi Calm Calm - N/A   Overcast
4:36 PM 66.2 °F 51.8 °F 60% 29.74 in 10.0 mi NE 3.5 mph - N/A   Overcast
4:56 PM 62.6 °F 51.8 °F 68% 29.74 in 10.0 mi NE 3.5 mph - N/A   Overcast
5:16 PM 60.8 °F 50.0 °F 68% 29.74 in 10.0 mi Calm Calm - N/A   Overcast
5:36 PM 60.8 °F 50.0 °F 68% 29.74 in 10.0 mi Calm Calm - N/A   Overcast
5:56 PM 60.8 °F 48.2 °F 63% 29.74 in 10.0 mi Calm Calm - N/A   Mostly Cloudy
6:16 PM 59.0 °F 50.0 °F 72% 29.74 in 10.0 mi Calm Calm - N/A   Mostly Cloudy
6:36 PM 60.8 °F 48.2 °F 63% 29.74 in 10.0 mi Calm Calm - N/A   Mostly Cloudy
6:56 PM 60.8 °F 48.2 °F 63% 29.74 in 10.0 mi Calm Calm - N/A   Overcast
7:16 PM 57.2 °F 48.2 °F 72% 29.74 in 10.0 mi NE 3.5 mph - N/A   Overcast
7:36 PM 57.2 °F 48.2 °F 72% 29.75 in 10.0 mi Calm Calm - N/A   Overcast
7:56 PM 57.2 °F 48.2 °F 72% 29.75 in 10.0 mi Calm Calm - N/A   Mostly Cloudy
8:16 PM 57.2 °F 48.2 °F 72% 29.76 in 10.0 mi Calm Calm - N/A   Mostly Cloudy
8:36 PM 59.0 °F 50.0 °F 72% 29.76 in 10.0 mi Calm Calm - N/A   Mostly Cloudy
8:56 PM 59.0 °F 48.2 °F 67% 29.76 in 10.0 mi Calm Calm - N/A   Partly Cloudy
9:16 PM 57.2 °F 50.0 °F 77% 29.77 in 10.0 mi East 3.5 mph - N/A   Partly Cloudy
9:36 PM 57.2 °F 50.0 °F 77% 29.77 in 10.0 mi Calm Calm - N/A   Partly Cloudy
9:56 PM 57.2 °F 51.8 °F 82% 29.77 in 10.0 mi Calm Calm - N/A   Mostly Cloudy
10:16 PM 57.2 °F 51.8 °F 82% 29.78 in 10.0 mi NE 3.5 mph - N/A   Mostly Cloudy
10:36 PM 55.4 °F 51.8 °F 88% 29.78 in 10.0 mi SSE 3.5 mph - N/A   Mostly Cloudy
10:56 PM 57.2 °F 51.8 °F 82% 29.78 in 10.0 mi SW 3.5 mph - N/A   Mostly Cloudy
11:16 PM 57.2 °F 51.8 °F 82% 29.78 in 10.0 mi NNE 4.6 mph - N/A   Mostly Cloudy
11:36 PM 55.4 °F 51.8 °F 88% 29.78 in 10.0 mi Calm Calm - N/A   Mostly Cloudy
11:56 PM 55.4 °F 51.8 °F 88% 29.78 in 10.0 mi Calm Calm - N/A   Overcast